Location: Ferchesar
(52.6477°N, 12.4298°E)
Time: 17:32:54
(UTC+01:00)

Explorer 7 - Pass Details

Date: 16 December 2021
Orbit: 483 x 674 km, 50.3° (Epoch: 23 January)

Event Time Altitude Azimuth Distance (km) Brightness Sun altitude
Rises 03:40:53 0° 258° (WSW) 2,933 - -40.1°
Reaches altitude 10° 03:43:17 10° 256° (WSW) 1,997 - -39.7°
Maximum altitude 03:47:49 64° 175° (S) 665 - -39.1°
Drops below altitude 10° 03:52:05 10° 94° (E) 1,878 - -38.4°
Exits shadow 03:52:09 10° 94° (E) 1,905 10.2 -38.4°
Sets 03:54:16 0° 92° (E) 2,742 11.3 -38.1°
